Location: Batang Balui
(2.7000°N, 113.7833°E)
Time: 04:35:04
(UTC+00:00)

CZ-2C R/B - Pass Details

Date: 08 February 2023
Orbit: 784 x 870 km, 98.3° (Epoch: 26 March)

Event Time Altitude Azimuth Distance (km) Brightness Sun altitude
Rises 21:38:51 0° 205° (SSW) 3,270 5.7 -15.2°
Reaches altitude 10° 21:42:31 10° 232° (SW) 2,345 4.7 -14.3°
Enters shadow 21:43:43 12° 246° (WSW) 2,195 4.4 -14.1°
